QPF
0.00 0.00 0.00 0.01 0.01 0.00 0.01 0.02 0.01 0.00 0.01 0.02 0.03 0.02 0.02 0.02 0.02 0.02 0.00 0.00 0.00 0.00 0.00 0.02 0.03 0.03 0.00 0.00 0.00 0.05 0.01 0.03 0.05 0.01 0.00 0.00 0.00 0.00 0.00 0.00 0.00 0.00 0.00 0.00 0.00 0.00 0.00
0.00 0.00 0.00 0.00 0.00 0.00 0.02 0.01 0.01 0.00 0.01 0.02 0.03 0.04 0.03 0.02 0.06 0.04 0.00 0.00 0.00 0.01 0.00 0.03 0.03 0.03 0.01 0.01 0.00 0.02 0.01 0.00 0.03 0.02 0.01 0.00 0.00 0.00 0.00 0.00 0.00 0.00 0.00 0.00 0.00 0.00 0.00
0.00 0.00 0.00 0.00 0.00 0.01 0.02 0.01 0.00 0.01 0.02 0.04 0.06 0.06 0.04 0.03 0.05 0.01 0.00 0.01 0.02 0.03 0.01 0.02 0.05 0.02 0.02 0.00 0.00 0.02 0.02 0.00 0.03 0.02 0.00 0.00 0.00 0.00 0.00 0.00 0.00 0.00 0.00 0.00 0.00 0.00 0.00
0.00 0.00 0.00 0.00 0.00 0.00 0.01 0.00 0.00 0.01 0.05 0.06 0.07 0.06 0.05 0.06 0.04 0.00 0.00 0.00 0.00 0.00 0.02 0.02 0.04 0.02 0.00 0.00 0.00 0.01 0.01 0.00 0.04 0.03 0.00 0.01 0.00 0.00 0.00 0.00 0.00 0.00 0.00 0.00 0.00 0.00 0.00
0.00 0.00 0.00 0.00 0.00 0.01 0.01 0.01 0.01 0.02 0.05 0.05 0.05 0.05 0.05 0.02 0.02 0.00 0.00 0.00 0.00 0.00 0.01 0.01 0.01 0.02 0.01 0.00 0.00 0.00 0.00 0.01 0.03 0.02 0.02 0.06 0.06 0.02 0.00 0.00 0.00 0.00 0.00 0.00 0.00 0.00 0.00
0.00 0.00 0.00 0.00 0.00 0.01 0.01 0.01 0.01 0.02 0.04 0.02 0.04 0.03 0.04 0.00 0.00 0.00 0.00 0.00 0.00 0.00 0.00 0.01 0.02 0.02 0.00 0.00 0.01 0.01 0.01 0.06 0.04 0.03 0.09 0.12 0.13 0.07 0.01 0.00 0.00 0.00 0.00 0.00 0.00 0.00 0.00
0.00 0.00 0.00 0.00 0.00 0.00 0.01 0.01 0.01 0.01 0.01 0.01 0.02 0.00 0.02 0.02 0.00 0.00 0.00 0.00 0.02 0.02 0.01 0.01 0.00 0.02 0.05 0.08 0.05 0.03 0.01 0.06 0.09 0.05 0.04 0.07 0.07 0.03 0.00 0.00 0.00 0.00 0.00 0.00 0.00 0.00 0.00
0.00 0.00 0.00 0.00 0.00 0.00 0.01 0.01 0.01 0.01 0.00 0.00 0.01 0.00 0.00 0.02 0.02 0.00 0.00 0.00 0.01 0.02 0.01 0.00 0.00 0.00 0.01 0.04 0.07 0.05 0.01 0.03 0.05 0.02 0.03 0.04 0.02 0.01 0.00 0.00 0.00 0.00 0.00 0.00 0.00 0.00 0.00
0.00 0.00 0.00 0.00 0.00 0.00 0.00 0.00 0.01 0.01 0.00 0.00 0.00 0.00 0.00 0.00 0.01 0.01 0.00 0.00 0.00 0.00 0.01 0.01 0.00 0.01 0.03 0.08 0.05 0.03 0.01 0.01 0.02 0.01 0.02 0.00 0.00 0.01 0.02 0.00 0.00 0.00 0.00 0.00 0.00 0.00 0.00
0.00 0.00 0.00 0.00 0.00 0.00 0.00 0.00 0.01 0.01 0.00 0.00 0.00 0.00 0.00 0.00 0.00 0.00 0.00 0.00 0.00 0.00 0.02 0.01 0.01 0.01 0.05 0.07 0.05 0.06 0.01 0.01 0.00 0.02 0.02 0.02 0.01 0.00 0.02 0.01 0.00 0.00 0.00 0.00 0.00 0.00 0.00
0.00 0.00 0.00 0.00 0.00 0.00 0.00 0.00 0.00 0.00 0.00 0.00 0.00 0.00 0.00 0.00 0.00 0.00 0.00 0.00 0.00 0.00 0.02 0.01 0.01 0.01 0.06 0.03 0.03 0.03 0.00 0.03 0.00 0.00 0.00 0.00 0.02 0.01 0.01 0.00 0.00 0.00 0.00 0.00 0.00 0.00 0.00
0.00 0.00 0.00 0.00 0.00 0.00 0.00 0.00 0.00 0.00 0.00 0.00 0.00 0.00 0.00 0.00 0.00 0.00 0.00 0.00 0.00 0.01 0.01 0.00 0.01 0.01 0.02 0.02 0.01 0.02 0.02 0.02 0.00 0.00 0.00 0.00 0.01 0.02 0.01 0.00 0.01 0.00 0.00 0.00 0.00 0.00 0.00
0.00 0.00 0.00 0.00 0.00 0.00 0.00 0.00 0.00 0.00 0.00 0.00 0.00 0.00 0.00 0.00 0.00 0.00 0.00 0.00 0.00 0.00 0.00 0.00 0.01 0.01 0.01 0.01 0.01 0.01 0.01 0.01 0.00 0.00 0.00 0.00 0.00 0.00 0.00 0.00 0.00 0.00 0.00 0.00 0.00 0.00 0.00
0.00 0.00 0.00 0.00 0.00 0.00 0.00 0.00 0.00 0.00 0.00 0.00 0.00 0.00 0.00 0.00 0.00 0.00 0.00 0.00 0.00 0.00 0.01 0.00 0.01 0.00 0.00 0.01 0.00 0.00 0.01 0.01 0.00 0.00 0.00 0.00 0.00 0.00 0.00 0.00 0.00 0.00 0.00 0.00 0.00 0.00 0.00
0.00 0.00 0.00 0.00 0.00 0.00 0.00 0.00 0.00 0.00 0.00 0.00 0.00 0.00 0.00 0.00 0.00 0.00 0.00 0.00 0.00 0.00 0.00 0.00 0.00 0.00 0.00 0.00 0.00 0.00 0.00 0.00 0.00 0.00 0.00 0.00 0.00 0.00 0.00 0.00 0.00 0.00 0.00 0.00 0.00 0.00 0.00
0.00 0.00 0.00 0.00 0.00 0.00 0.00 0.00 0.00 0.00 0.00 0.00 0.00 0.00 0.00 0.00 0.00 0.00 0.00 0.00 0.00 0.00 0.00 0.00 0.00 0.00 0.00 0.00 0.00 0.00 0.00 0.00 0.00 0.00 0.00 0.00 0.00 0.00 0.00 0.00 0.00 0.00 0.00 0.00 0.00 0.00 0.00
0.00 0.00 0.00 0.00 0.00 0.00 0.00 0.00 0.00 0.00 0.00 0.00 0.00 0.00 0.00 0.00 0.00 0.00 0.00 0.00 0.00 0.00 0.00 0.00 0.00 0.00 0.00 0.00 0.00 0.00 0.00 0.00 0.00 0.00 0.00 0.00 0.00 0.00 0.00 0.00 0.00 0.00 0.00 0.00 0.00 0.00 0.00
0.00 0.00 0.00 0.00 0.00 0.00 0.00 0.00 0.00 0.00 0.00 0.00 0.00 0.00 0.00 0.00 0.00 0.00 0.00 0.00 0.00 0.00 0.00 0.00 0.00 0.00 0.00 0.00 0.00 0.00 0.00 0.00 0.00 0.00 0.00 0.00 0.00 0.00 0.00 0.00 0.00 0.00 0.00 0.00 0.00 0.00 0.00
0.00 0.00 0.00 0.00 0.00 0.00 0.00 0.00 0.00 0.00 0.00 0.00 0.00 0.00 0.00 0.00 0.00 0.00 0.00 0.00 0.00 0.00 0.00 0.00 0.00 0.00 0.00 0.00 0.00 0.00 0.00 0.00 0.00 0.00 0.00 0.00 0.00 0.00 0.00 0.00 0.00 0.00 0.00 0.00 0.00 0.00 0.00
0.00 0.00 0.00 0.00 0.00 0.00 0.00 0.00 0.00 0.00 0.00 0.00 0.00 0.00 0.00 0.00 0.00 0.00 0.00 0.00 0.00 0.00 0.00 0.00 0.00 0.00 0.00 0.00 0.00 0.00 0.00 0.00 0.00 0.00 0.00 0.00 0.00 0.00 0.00 0.00 0.00 0.00 0.00 0.00 0.00 0.00 0.00
0.00 0.00 0.00 0.00 0.00 0.00 0.00 0.00 0.00 0.00 0.00 0.00 0.00 0.00 0.00 0.00 0.00 0.00 0.00 0.00 0.00 0.00 0.00 0.00 0.00 0.00 0.00 0.00 0.00 0.00 0.00 0.00 0.00 0.00 0.00 0.00 0.00 0.00 0.00 0.00 0.00 0.00 0.00 0.00 0.00 0.00 0.00
0.00 0.00 0.00 0.00 0.00 0.00 0.00 0.00 0.00 0.00 0.00 0.00 0.00 0.00 0.00 0.00 0.00 0.00 0.00 0.00 0.00 0.00 0.00 0.00 0.00 0.00 0.00 0.00 0.00 0.00 0.00 0.00 0.00 0.00 0.00 0.00 0.00 0.00 0.00 0.00 0.00 0.00 0.00 0.00 0.00 0.00 0.00
0.00 0.00 0.00 0.00 0.00 0.00 0.00 0.00 0.00 0.00 0.00 0.00 0.00 0.00 0.00 0.00 0.00 0.00 0.00 0.00 0.00 0.00 0.00 0.00 0.00 0.00 0.00 0.00 0.00 0.00 0.00 0.00 0.00 0.00 0.00 0.00 0.00 0.00 0.00 0.00 0.00 0.00 0.00 0.00 0.00 0.00 0.00
0.00 0.00 0.00 0.00 0.00 0.00 0.00 0.00 0.00 0.00 0.00 0.00 0.00 0.00 0.00 0.00 0.00 0.00 0.00 0.00 0.00 0.00 0.00 0.00 0.00 0.00 0.00 0.00 0.00 0.00 0.00 0.00 0.00 0.00 0.00 0.00 0.00 0.00 0.00 0.00 0.00 0.00 0.00 0.00 0.00 0.00 0.00
0.00 0.00 0.00 0.00 0.00 0.00 0.01 0.00 0.00 0.00 0.00 0.00 0.00 0.00 0.00 0.00 0.00 0.00 0.00 0.00 0.00 0.00 0.00 0.00 0.00 0.00 0.00 0.00 0.00 0.00 0.00 0.00 0.00 0.00 0.00 0.00 0.00 0.00 0.00 0.00 0.00 0.00 0.00 0.00 0.00 0.00 0.00
0.00 0.00 0.00 0.00 0.00 0.00 0.00 0.01 0.01 0.00 0.00 0.00 0.00 0.00 0.00 0.00 0.00 0.00 0.00 0.00 0.00 0.00 0.00 0.00 0.00 0.00 0.00 0.00 0.00 0.00 0.00 0.00 0.00 0.00 0.00 0.00 0.00 0.00 0.00 0.00 0.00 0.00 0.00 0.00 0.00 0.00 0.00
0.00 0.00 0.00 0.00 0.00 0.00 0.00 0.00 0.01 0.01 0.00 0.00 0.00 0.00 0.00 0.00 0.00 0.00 0.00 0.00 0.00 0.00 0.00 0.00 0.00 0.00 0.00 0.01 0.00 0.00 0.00 0.00 0.00 0.00 0.00 0.00 0.01 0.01 0.00 0.00 0.00 0.00 0.00 0.00 0.00 0.00 0.00
0.01 0.00 0.00 0.00 0.00 0.00 0.00 0.00 0.00 0.01 0.01 0.00 0.00 0.00 0.00 0.00 0.00 0.00 0.00 0.00 0.00 0.00 0.00 0.00 0.00 0.00 0.00 0.01 0.00 0.00 0.00 0.00 0.00 0.00 0.00 0.00 0.00 0.00 0.00 0.00 0.00 0.00 0.00 0.00 0.00 0.00 0.00
0.01 0.00 0.00 0.00 0.00 0.00 0.00 0.00 0.01 0.00 0.01 0.00 0.00 0.00 0.00 0.00 0.00 0.00 0.00 0.00 0.00 0.00 0.00 0.00 0.00 0.00 0.00 0.00 0.00 0.00 0.00 0.00 0.00 0.00 0.00 0.00 0.00 0.00 0.00 0.00 0.00 0.00 0.00 0.00 0.00 0.00 0.00
MSLP
1021.27 1020.82 1020.47 1019.93 1019.50 1018.95 1018.37 1017.83 1017.28 1016.79 1016.16 1015.53 1014.96 1014.60 1014.34 1014.06 1013.83 1013.72 1013.52 1013.37 1013.21 1013.17 1013.10 1013.19 1013.20 1013.27 1013.19 1012.18 1010.13 1010.16 1010.00 1010.22 1010.80 1011.28 1011.50 1011.51 1010.93 1011.02 1010.83 1010.71 1010.59 1010.37 1009.35 1009.57 1009.56 1010.06 1010.17
1021.46 1020.92 1020.45 1019.94 1019.22 1018.73 1018.10 1017.63 1017.20 1016.52 1015.96 1015.36 1014.75 1014.31 1014.00 1013.74 1013.44 1013.43 1013.26 1013.12 1013.00 1013.02 1013.03 1013.00 1013.14 1013.30 1012.81 1011.42 1009.56 1009.99 1010.51 1010.19 1010.59 1010.84 1010.86 1011.03 1010.55 1010.66 1010.42 1010.32 1010.30 1010.38 1010.15 1010.10 1010.05 1010.42 1010.61
1021.36 1020.70 1020.34 1019.96 1019.38 1018.88 1018.22 1017.61 1017.00 1016.35 1015.69 1014.91 1014.22 1013.55 1013.19 1013.20 1013.08 1013.15 1013.01 1012.99 1013.05 1013.10 1012.99 1012.85 1012.97 1012.89 1012.17 1010.59 1009.58 1010.23 1010.91 1010.44 1009.88 1010.55 1010.28 1010.66 1010.71 1010.60 1010.58 1010.63 1010.64 1010.92 1010.44 1010.50 1010.29 1010.62 1010.73
1021.28 1020.75 1020.26 1019.80 1019.34 1018.85 1018.30 1017.56 1016.90 1016.21 1015.35 1014.64 1014.00 1013.28 1012.65 1012.64 1012.86 1012.89 1012.94 1013.00 1012.92 1012.88 1012.89 1012.82 1012.77 1012.50 1011.33 1010.49 1010.26 1010.61 1011.03 1010.33 1009.96 1010.51 1010.29 1010.97 1011.00 1010.84 1010.97 1011.05 1011.16 1011.06 1010.82 1010.43 1010.29 1010.78 1010.76
1021.40 1020.95 1020.49 1019.98 1019.54 1019.00 1018.39 1017.58 1016.90 1016.16 1015.16 1014.40 1013.81 1013.07 1012.37 1012.37 1012.61 1012.67 1012.90 1012.96 1012.77 1012.57 1012.66 1012.75 1012.76 1012.25 1010.52 1009.80 1010.02 1010.04 1010.69 1010.18 1010.17 1010.61 1010.51 1011.23 1011.58 1011.11 1011.25 1010.99 1011.05 1010.78 1010.08 1009.78 1009.84 1010.18 1010.59
1021.48 1021.09 1020.64 1020.32 1019.72 1019.14 1018.23 1017.55 1016.94 1016.09 1015.23 1014.53 1013.75 1013.05 1012.31 1012.27 1012.45 1012.76 1012.89 1012.86 1012.67 1012.48 1012.47 1012.27 1012.15 1012.12 1010.22 1009.29 1009.24 1009.60 1010.28 1010.18 1009.96 1010.57 1011.36 1012.13 1012.24 1011.29 1010.87 1010.38 1009.40 1009.36 1009.85 1009.12 1009.30 1010.16 1010.23
1021.50 1021.01 1020.70 1020.33 1019.73 1019.25 1018.41 1017.61 1016.99 1016.10 1015.40 1014.74 1014.07 1013.22 1012.38 1012.32 1012.55 1012.81 1012.82 1012.70 1012.69 1012.25 1011.95 1011.13 1011.09 1010.72 1010.01 1009.47 1009.65 1009.70 1010.11 1010.25 1009.97 1011.03 1011.20 1011.73 1011.74 1010.47 1009.53 1009.13 1009.13 1009.14 1009.73 1009.27 1009.37 1010.42 1010.46
1021.39 1021.07 1020.76 1020.31 1019.79 1019.20 1018.59 1017.78 1016.99 1016.23 1015.60 1014.99 1014.49 1013.76 1013.03 1012.72 1012.71 1012.87 1012.83 1012.33 1012.81 1012.96 1011.89 1011.76 1011.63 1011.39 1011.09 1010.59 1009.63 1009.91 1010.28 1010.60 1010.56 1010.98 1011.19 1012.17 1011.31 1010.56 1010.19 1009.72 1009.41 1009.68 1009.46 1009.73 1010.14 1010.65 1010.98
1021.57 1021.17 1020.70 1020.28 1019.77 1019.33 1018.66 1017.97 1017.16 1016.42 1015.79 1015.30 1014.81 1014.27 1013.69 1013.36 1013.24 1013.61 1012.98 1013.25 1013.16 1012.97 1012.65 1012.09 1012.23 1011.65 1010.89 1010.37 1009.73 1010.47 1010.96 1011.70 1011.26 1011.17 1011.30 1011.25 1011.13 1010.85 1010.22 1009.89 1009.74 1009.81 1009.93 1010.15 1010.55 1011.25 1011.10
1021.70 1021.31 1020.86 1020.32 1019.87 1019.49 1018.94 1018.09 1017.54 1016.62 1015.97 1015.51 1015.07 1014.36 1013.84 1013.36 1013.54 1013.37 1013.11 1013.42 1013.25 1013.18 1013.06 1012.96 1012.35 1011.60 1010.86 1010.13 1010.44 1011.01 1011.81 1012.66 1012.38 1011.63 1012.04 1012.28 1011.36 1011.66 1010.60 1010.13 1009.96 1009.83 1010.56 1010.76 1011.35 1011.23 1010.40
1021.86 1021.32 1020.84 1020.44 1019.88 1019.43 1018.99 1018.40 1017.59 1017.03 1016.15 1015.56 1015.26 1014.41 1013.93 1013.11 1012.97 1013.31 1013.87 1013.44 1013.43 1013.41 1012.81 1013.25 1012.50 1011.58 1010.90 1010.57 1010.78 1011.71 1012.40 1012.51 1012.18 1012.32 1013.17 1012.83 1012.10 1011.61 1010.81 1010.36 1010.27 1010.70 1011.37 1011.78 1012.02 1011.52 1011.01
1021.74 1021.45 1021.01 1020.55 1020.02 1019.43 1018.91 1018.44 1017.83 1016.98 1016.24 1015.47 1015.00 1014.49 1013.85 1013.19 1012.89 1013.36 1013.46 1013.27 1013.08 1012.83 1012.10 1012.23 1011.62 1011.08 1010.28 1010.31 1010.78 1011.56 1011.99 1012.39 1012.55 1012.96 1012.95 1013.31 1013.20 1012.97 1012.09 1011.22 1010.99 1011.94 1012.15 1012.53 1012.52 1012.13 1011.33
1021.71 1021.37 1021.00 1020.44 1019.91 1019.49 1018.75 1018.09 1017.56 1016.95 1016.16 1015.32 1014.54 1014.08 1013.81 1013.12 1012.52 1012.87 1012.94 1012.49 1012.18 1012.01 1012.65 1012.31 1011.33 1011.00 1010.65 1010.70 1010.95 1011.33 1011.68 1011.55 1012.24 1013.16 1013.57 1013.76 1014.19 1014.13 1013.71 1012.88 1012.74 1012.29 1012.26 1012.35 1012.53 1012.23 1010.97
1021.60 1021.36 1020.85 1020.42 1019.82 1019.10 1018.59 1017.88 1017.22 1016.57 1015.98 1015.09 1014.24 1013.73 1013.26 1012.80 1012.88 1012.98 1012.67 1011.92 1011.49 1012.27 1011.73 1011.59 1011.00 1010.63 1010.61 1010.93 1011.10 1010.87 1010.60 1011.14 1011.84 1012.06 1012.56 1013.45 1015.08 1015.03 1014.54 1013.95 1013.33 1012.87 1012.03 1011.31 1011.05 1010.59 1010.49
1021.46 1021.28 1020.90 1020.36 1019.64 1019.05 1018.64 1017.98 1017.11 1016.25 1015.64 1014.71 1013.92 1013.11 1012.84 1012.44 1012.91 1013.04 1012.61 1011.83 1012.44 1011.79 1010.99 1010.48 1010.15 1009.94 1010.12 1010.34 1010.53 1010.24 1009.82 1009.91 1010.49 1010.68 1011.23 1012.22 1014.13 1015.06 1014.92 1014.55 1014.24 1014.17 1013.12 1012.34 1011.39 1010.81 1010.33
1021.53 1021.13 1020.75 1020.36 1019.88 1019.51 1018.65 1017.97 1017.13 1016.28 1015.23 1014.59 1013.64 1012.75 1012.19 1012.51 1012.72 1012.59 1011.79 1012.08 1011.98 1011.34 1010.50 1009.89 1009.35 1009.53 1009.04 1009.37 1009.26 1009.25 1009.39 1009.82 1009.95 1010.27 1010.21 1010.98 1012.89 1014.57 1014.61 1014.88 1014.90 1014.41 1012.86 1012.59 1011.98 1010.94 1009.67
1021.50 1021.19 1020.69 1020.27 1019.99 1019.47 1018.81 1017.96 1017.26 1016.27 1015.26 1014.30 1013.53 1012.29 1012.14 1012.50 1012.54 1011.17 1011.66 1012.01 1011.12 1010.87 1010.51 1009.96 1009.37 1009.05 1008.79 1009.13 1009.05 1008.98 1009.29 1009.90 1009.75 1010.00 1009.96 1010.37 1011.23 1013.72 1013.86 1013.66 1013.43 1014.12 1012.98 1012.20 1011.60 1011.08 1009.87
1021.43 1021.35 1020.78 1020.49 1020.14 1019.62 1019.11 1018.43 1017.45 1016.39 1015.28 1014.04 1013.50 1012.15 1011.99 1012.31 1011.54 1010.69 1010.95 1011.42 1011.30 1010.45 1010.10 1009.77 1009.66 1009.56 1009.13 1009.38 1009.28 1009.18 1009.14 1009.33 1009.96 1009.87 1009.81 1010.62 1011.32 1012.51 1012.94 1013.17 1013.05 1012.51 1011.81 1011.72 1011.41 1011.42 1010.88
1021.53 1021.15 1021.04 1020.51 1019.89 1019.62 1019.05 1018.49 1017.78 1016.81 1016.08 1015.50 1013.62 1012.27 1011.79 1011.64 1010.66 1010.48 1010.89 1010.79 1010.71 1010.21 1009.93 1009.58 1009.45 1009.59 1009.68 1009.40 1009.40 1009.53 1009.76 1010.32 1010.23 1010.05 1010.06 1010.60 1011.38 1012.46 1012.94 1013.17 1012.94 1012.53 1012.08 1011.87 1011.66 1011.78 1011.14
1021.70 1021.56 1021.00 1020.46 1020.05 1019.65 1019.12 1018.54 1017.90 1017.04 1016.07 1015.65 1014.20 1012.66 1011.16 1010.98 1010.97 1010.16 1010.21 1010.20 1010.24 1010.46 1010.04 1009.84 1009.61 1009.55 1009.41 1009.31 1009.41 1009.57 1009.86 1010.49 1010.69 1010.54 1010.82 1010.87 1011.33 1011.91 1011.98 1011.96 1011.81 1012.28 1011.93 1012.05 1012.27 1011.96 1010.64
1021.71 1021.48 1021.23 1020.69 1020.00 1019.73 1019.42 1018.74 1017.81 1017.14 1015.97 1015.43 1014.53 1013.77 1013.80 1011.53 1010.90 1010.60 1010.43 1010.29 1010.04 1009.98 1010.02 1009.80 1009.53 1009.27 1009.05 1009.04 1009.18 1009.40 1009.82 1010.44 1010.73 1010.98 1010.97 1011.08 1011.68 1012.37 1012.35 1012.39 1012.38 1012.29 1012.05 1012.02 1011.91 1011.59 1010.59
1021.62 1021.50 1021.07 1020.77 1020.35 1019.61 1019.47 1018.94 1018.19 1017.22 1015.92 1015.09 1015.79 1015.62 1014.46 1012.68 1011.99 1010.99 1010.61 1010.17 1010.06 1010.08 1010.01 1009.54 1009.28 1009.15 1009.17 1008.93 1008.88 1009.02 1009.44 1009.70 1009.88 1010.81 1010.96 1011.43 1012.13 1012.71 1012.74 1012.62 1012.49 1012.16 1011.72 1011.43 1011.46 1011.23 1010.60
1021.59 1021.30 1020.95 1020.74 1020.36 1019.98 1019.61 1019.11 1018.65 1017.79 1016.65 1016.09 1016.77 1016.52 1015.96 1013.35 1012.10 1011.37 1010.35 1010.41 1010.44 1010.44 1010.27 1009.94 1009.33 1009.18 1009.35 1009.46 1009.50 1009.44 1009.27 1009.45 1009.68 1010.09 1010.62 1011.18 1012.11 1012.72 1012.48 1012.64 1012.30 1011.32 1009.97 1010.19 1010.24 1010.17 1010.01
1021.45 1021.28 1021.14 1020.78 1020.55 1020.26 1019.92 1019.58 1019.01 1018.69 1018.17 1017.48 1017.79 1017.74 1016.48 1013.74 1012.92 1011.87 1011.79 1011.53 1010.99 1010.74 1010.32 1010.07 1009.96 1009.49 1010.22 1010.10 1010.02 1009.80 1009.79 1009.91 1010.06 1010.28 1010.48 1010.94 1011.90 1012.42 1012.53 1012.55 1011.30 1009.41 1009.14 1008.90 1009.21 1009.34 1009.49
1021.30 1021.14 1021.04 1020.93 1020.56 1020.31 1019.96 1019.93 1019.55 1019.34 1018.84 1018.15 1018.28 1018.14 1017.43 1015.59 1013.85 1013.08 1012.78 1012.40 1011.78 1011.26 1010.85 1010.46 1010.53 1010.68 1010.47 1010.28 1010.01 1010.11 1010.19 1010.26 1010.32 1010.58 1010.67 1010.86 1011.44 1011.88 1011.99 1011.29 1009.61 1008.31 1008.60 1008.74 1008.57 1008.14 1008.36
1021.13 1021.10 1020.96 1021.07 1020.58 1020.74 1020.14 1020.06 1019.45 1019.47 1019.34 1018.66 1018.75 1018.59 1018.14 1017.20 1014.67 1014.67 1014.06 1013.60 1012.53 1011.44 1011.25 1010.98 1011.23 1011.12 1010.98 1010.78 1010.36 1009.93 1009.75 1009.58 1010.03 1010.51 1010.91 1011.08 1011.10 1011.65 1011.67 1011.05 1009.22 1008.10 1008.10 1008.23 1008.33 1007.78 1007.81
1020.90 1021.03 1020.90 1020.65 1020.54 1020.58 1020.33 1020.20 1020.04 1019.59 1019.42 1019.22 1018.96 1019.03 1018.41 1017.52 1015.84 1015.48 1014.65 1014.29 1013.68 1012.91 1011.90 1011.53 1011.46 1011.46 1011.42 1010.81 1010.65 1010.40 1009.96 1009.76 1009.49 1009.81 1010.32 1010.69 1010.87 1010.97 1010.89 1010.37 1008.73 1007.54 1008.10 1008.27 1008.37 1008.72 1008.55
1020.45 1020.60 1020.55 1020.51 1020.42 1020.53 1020.42 1020.18 1020.00 1019.61 1019.53 1019.42 1019.04 1019.19 1019.02 1018.16 1016.59 1016.10 1015.64 1015.03 1014.30 1013.97 1012.99 1012.47 1012.22 1011.63 1011.57 1011.10 1010.58 1010.19 1009.56 1009.20 1009.13 1008.98 1009.25 1009.66 1009.96 1010.00 1010.07 1009.65 1008.36 1007.53 1008.18 1008.03 1008.04 1008.47 1008.96
1020.11 1020.32 1020.54 1020.55 1020.07 1020.03 1020.08 1020.10 1019.72 1019.51 1019.47 1019.34 1019.19 1019.21 1019.32 1018.95 1017.01 1016.41 1016.05 1015.70 1015.51 1015.16 1015.03 1013.65 1013.04 1011.99 1011.27 1011.12 1010.32 1009.76 1009.19 1008.86 1008.59 1008.30 1008.96 1009.01 1008.59 1008.82 1008.78 1008.01 1007.67 1007.64 1007.36 1007.80 1008.26 1008.56 1009.05
Thickness
5569 5562 5553 5546 5536 5528 5522 5516 5507 5495 5483 5470 5456 5438 5424 5418 5415 5410 5410 5410 5410 5411 5413 5417 5423 5430 5440 5463 5497 5518 5533 5542 5548 5556 5561 5567 5580 5586 5590 5602 5608 5611 5631 5635 5642 5646 5650
5562 5556 5548 5540 5534 5525 5519 5510 5499 5488 5476 5462 5447 5431 5419 5414 5412 5409 5409 5409 5409 5409 5409 5412 5415 5420 5434 5450 5489 5507 5518 5534 5544 5552 5561 5568 5581 5589 5591 5598 5602 5614 5616 5624 5633 5637 5641
5560 5554 5545 5535 5527 5518 5514 5506 5496 5484 5471 5459 5444 5431 5420 5413 5410 5406 5406 5406 5406 5405 5406 5407 5409 5418 5430 5456 5480 5495 5510 5528 5548 5550 5560 5568 5574 5579 5588 5587 5601 5601 5602 5614 5623 5629 5633
5558 5551 5543 5532 5523 5515 5508 5502 5493 5480 5470 5456 5441 5428 5419 5414 5409 5405 5403 5401 5403 5405 5404 5402 5404 5416 5433 5453 5470 5488 5504 5526 5544 5548 5558 5561 5568 5573 5576 5586 5588 5588 5594 5593 5616 5620 5630
5553 5545 5537 5527 5518 5511 5505 5499 5491 5478 5471 5459 5443 5429 5419 5414 5409 5406 5402 5401 5403 5405 5404 5402 5405 5414 5438 5462 5475 5494 5505 5524 5538 5543 5553 5555 5555 5562 5569 5572 5572 5580 5585 5599 5608 5624 5624
5550 5541 5532 5521 5514 5507 5505 5499 5491 5481 5472 5460 5445 5431 5421 5414 5409 5405 5402 5401 5402 5404 5405 5407 5412 5417 5447 5468 5484 5499 5510 5526 5537 5541 5538 5537 5540 5550 5562 5568 5574 5589 5586 5609 5608 5613 5621
5546 5540 5530 5520 5513 5506 5503 5499 5491 5483 5474 5463 5449 5437 5426 5415 5409 5404 5402 5402 5403 5404 5408 5423 5428 5433 5452 5470 5486 5503 5515 5526 5538 5533 5536 5539 5540 5551 5575 5594 5598 5595 5590 5598 5611 5606 5610
5545 5536 5527 5519 5512 5507 5501 5498 5493 5486 5478 5469 5455 5445 5434 5423 5413 5407 5403 5406 5398 5399 5413 5420 5426 5436 5449 5467 5491 5505 5517 5522 5533 5532 5541 5531 5539 5561 5571 5578 5583 5584 5589 5590 5596 5599 5598
5540 5532 5525 5518 5511 5505 5501 5498 5495 5489 5483 5475 5463 5454 5446 5439 5429 5416 5418 5412 5409 5412 5412 5429 5433 5445 5464 5483 5503 5506 5512 5512 5529 5536 5539 5541 5547 5556 5563 5568 5572 5579 5581 5584 5587 5589 5597
5535 5528 5521 5515 5509 5504 5499 5499 5495 5493 5488 5481 5472 5467 5462 5456 5449 5443 5439 5432 5432 5433 5441 5440 5450 5463 5481 5494 5501 5507 5506 5508 5511 5533 5535 5532 5550 5542 5559 5562 5572 5570 5580 5583 5577 5584 5593
5531 5525 5520 5512 5508 5504 5500 5497 5498 5493 5494 5489 5481 5479 5474 5475 5472 5461 5449 5451 5450 5447 5491 5452 5457 5475 5493 5502 5507 5505 5504 5507 5520 5521 5519 5526 5539 5549 5557 5564 5572 5564 5572 5571 5571 5577 5585
5530 5521 5516 5510 5504 5504 5502 5498 5498 5497 5498 5499 5493 5490 5488 5489 5487 5475 5467 5465 5465 5469 5488 5473 5487 5494 5509 5514 5512 5510 5513 5514 5519 5518 5525 5522 5531 5533 5548 5559 5566 5560 5561 5561 5564 5568 5567
5527 5520 5514 5511 5507 5502 5504 5504 5502 5501 5501 5505 5506 5502 5499 5499 5503 5492 5488 5490 5495 5505 5480 5484 5500 5507 5511 5515 5515 5514 5516 5522 5520 5517 5516 5511 5511 5522 5531 5540 5547 5557 5558 5550 5551 5551 5573
5525 5518 5514 5511 5508 5507 5505 5506 5507 5507 5505 5508 5512 5512 5511 5509 5505 5500 5500 5510 5526 5498 5507 5509 5516 5519 5516 5515 5516 5523 5532 5527 5526 5525 5525 5527 5520 5502 5518 5530 5541 5551 5564 5569 5565 5575 5584
5524 5515 5511 5511 5511 5509 5503 5504 5508 5511 5510 5513 5518 5522 5520 5519 5512 5508 5509 5521 5511 5507 5524 5526 5530 5528 5525 5526 5524 5533 5541 5543 5541 5541 5534 5531 5522 5507 5513 5524 5534 5528 5541 5561 5566 5571 5577
5521 5515 5511 5508 5506 5502 5503 5503 5507 5510 5515 5516 5523 5529 5532 5523 5519 5518 5534 5521 5519 5524 5532 5536 5535 5534 5540 5538 5542 5544 5543 5543 5542 5545 5551 5547 5529 5516 5521 5520 5519 5527 5554 5545 5551 5557 5575
5519 5512 5508 5505 5502 5500 5499 5504 5504 5509 5514 5518 5525 5538 5533 5525 5524 5542 5520 5517 5536 5534 5534 5536 5538 5540 5546 5539 5543 5545 5543 5539 5546 5544 5552 5553 5549 5523 5531 5535 5540 5527 5538 5551 5560 5561 5574
5515 5506 5504 5500 5496 5495 5493 5495 5501 5507 5513 5520 5525 5535 5533 5528 5541 5547 5538 5525 5522 5538 5540 5540 5540 5537 5542 5538 5538 5542 5544 5547 5543 5547 5548 5545 5543 5532 5537 5537 5540 5549 5559 5560 5558 5552 5559
5509 5506 5497 5495 5495 5493 5493 5491 5492 5500 5504 5507 5527 5534 5534 5534 5544 5541 5536 5535 5534 5540 5540 5542 5540 5539 5537 5538 5537 5539 5539 5536 5540 5544 5546 5545 5537 5524 5528 5535 5538 5541 5550 5555 5558 5550 5547
5503 5496 5493 5491 5488 5488 5488 5487 5487 5492 5500 5504 5519 5522 5542 5540 5538 5546 5542 5540 5538 5533 5537 5539 5539 5541 5540 5539 5540 5536 5537 5533 5533 5538 5532 5542 5539 5535 5545 5543 5550 5537 5546 5548 5543 5542 5562
5497 5492 5485 5482 5483 5480 5479 5480 5484 5485 5495 5502 5513 5520 5510 5537 5539 5538 5538 5538 5539 5538 5538 5539 5538 5541 5543 5539 5538 5536 5536 5530 5532 5528 5535 5539 5525 5519 5536 5536 5534 5534 5540 5542 5537 5547 5554
5493 5485 5481 5475 5472 5476 5472 5471 5473 5479 5488 5498 5490 5488 5503 5526 5527 5535 5528 5539 5537 5536 5535 5538 5539 5542 5542 5541 5543 5538 5538 5538 5537 5532 5533 5533 5514 5519 5520 5529 5529 5529 5538 5544 5542 5545 5553
5486 5480 5475 5468 5466 5465 5465 5464 5462 5466 5475 5482 5477 5480 5482 5516 5527 5532 5542 5538 5534 5532 5533 5535 5541 5541 5538 5538 5538 5539 5543 5543 5542 5537 5533 5531 5520 5516 5529 5525 5526 5534 5546 5548 5550 5551 5552
5478 5471 5466 5461 5455 5454 5454 5452 5454 5452 5456 5461 5460 5461 5475 5518 5516 5527 5522 5522 5528 5530 5532 5534 5535 5538 5529 5532 5533 5535 5536 5536 5536 5535 5537 5530 5522 5520 5521 5517 5526 5556 5558 5562 5556 5557 5557
5472 5466 5459 5451 5449 5448 5448 5443 5442 5439 5444 5448 5448 5450 5460 5482 5505 5510 5510 5512 5519 5524 5526 5530 5529 5526 5530 5530 5529 5525 5525 5526 5527 5528 5531 5534 5528 5521 5519 5530 5551 5562 5557 5552 5554 5563 5565
5464 5457 5451 5441 5442 5435 5439 5435 5437 5430 5432 5438 5437 5440 5445 5455 5491 5481 5487 5489 5509 5522 5521 5522 5519 5520 5521 5522 5526 5525 5525 5533 5526 5524 5524 5527 5531 5523 5520 5520 5537 5558 5558 5560 5559 5561 5567
5459 5448 5441 5437 5433 5429 5430 5427 5423 5423 5422 5425 5427 5427 5436 5446 5467 5469 5480 5483 5490 5503 5514 5515 5514 5513 5514 5522 5518 5517 5520 5531 5528 5524 5520 5520 5521 5520 5523 5523 5543 5563 5555 5556 5544 5550 5556
5452 5443 5436 5430 5427 5422 5419 5418 5416 5416 5413 5414 5416 5417 5421 5433 5449 5455 5462 5470 5481 5484 5502 5505 5507 5511 5510 5513 5517 5518 5525 5531 5530 5535 5529 5524 5522 5523 5524 5521 5529 5558 5548 5547 5554 5551 5548
5444 5435 5426 5421 5423 5419 5416 5410 5412 5410 5407 5406 5407 5407 5409 5415 5437 5444 5450 5456 5459 5466 5466 5485 5489 5505 5513 5516 5524 5526 5526 5530 5530 5529 5531 5523 5534 5531 5534 5539 5549 5551 5554 5553 5550 5549 5545